User: anonymous   Login
Location: Mount Graham
(32.7016°N, 109.8912°W)
Time: 23:52:43
(UTC-07:00)
Language:

Cosmos 1340 - Orbit

View from above orbital plane
View from above orbital plane
View from above satellite
View from above satellite

Ground track
Ground track

The orbit data is extracted from the following two-line orbital elements,

1 13067U 82013A   14354.44034758  .00012898  00000-0  69549-3 0  5500
2 13067 081.1891 112.3160 0003210 357.0320 067.2490 15.14676967789821
Epoch (UTC): 20 December 2014 10:34:06
Eccentricity: 0.0003210
inclination: 81.1891°
perigee height: 520 km
apogee height: 524 km
right ascension of ascending node: 112.3160°
argument of perigee: 357.0320°
revolutions per day: 15.14676967
mean anomaly at epoch: 67.2490°
orbit number at epoch: 78982

The dashed part of the orbit path shows where the satellite is in the earth's shadow,  

DLR